GFSNGP_850_temp_009.txt.gz
Temp
8 9 9 9 9 9 8 8 7 9 8 9 8 7 8 8 8 8 8 8 7 7 7 7 6 6 6 5 4 3 3 2 0 0 0 -1 -1 -2 -2 -2 -2 -2 -1 -2
7 8 8 8 8 8 8 8 7 7 7 9 9 8 7 8 8 7 7 8 7 7 7 6 6 6 5 4 3 2 1 0 -1 -1 -2 -2 -2 -2 -3 -3 -3 -3 -3 -3
5 5 4 6 6 8 8 8 8 7 7 8 7 7 8 8 7 7 7 7 6 6 6 6 5 4 3 3 2 1 -0 -0 -1 -1 -2 -2 -3 -3 -3 -3 -3 -3 -3 -4
2 5 6 9 10 9 8 8 8 7 7 8 8 8 7 7 7 6 6 5 5 5 6 6 4 3 2 1 1 0 -1 -2 -2 -2 -3 -3 -3 -2 -3 -3 -4 -4 -4 -4
5 5 6 8 9 10 9 8 9 8 7 8 8 7 7 8 6 5 4 3 3 4 4 4 3 2 1 0 -1 -2 -3 -3 -3 -3 -2 -2 -3 -3 -4 -4 -5 -5 -5 -6
4 5 6 7 9 10 9 6 8 8 7 8 6 5 6 4 4 2 3 4 4 3 4 3 1 -0 0 -1 -2 -3 -2 -2 -2 -2 -3 -3 -4 -4 -5 -5 -5 -6 -6 -7
2 3 4 5 9 9 6 7 9 8 7 6 5 6 4 3 3 3 4 4 2 3 2 1 -0 -0 -1 -1 -2 -2 -2 -3 -3 -3 -3 -4 -4 -5 -5 -6 -6 -7 -7 -8
3 4 4 9 9 7 8 9 8 7 6 5 5 3 2 1 2 3 2 2 3 1 0 -1 -1 -1 -1 -2 -2 -2 -2 -3 -3 -4 -4 -5 -5 -6 -6 -7 -7 -8 -8 -8
4 5 8 9 9 9 8 7 7 5 4 4 2 1 1 4 3 3 2 2 1 0 -1 -1 -1 -3 -2 -2 -3 -3 -3 -3 -4 -4 -5 -5 -6 -7 -7 -8 -8 -9 -10 -10
5 8 8 9 8 8 8 7 5 3 2 1 -0 1 2 3 2 2 2 2 1 -1 -1 -1 -2 -3 -3 -3 -3 -3 -4 -4 -4 -5 -5 -6 -7 -8 -8 -9 -9 -10 -10 -11
6 7 7 8 8 7 5 5 4 2 1 2 4 4 3 3 3 2 1 1 -0 -1 -1 -1 -2 -2 -2 -3 -3 -4 -4 -5 -5 -6 -7 -7 -8 -8 -9 -10 -10 -11 -11 -11
6 8 7 8 5 4 3 2 1 2 3 4 4 3 3 3 2 1 1 0 -1 -1 -1 -2 -2 -2 -2 -3 -3 -4 -4 -5 -5 -6 -7 -8 -8 -9 -9 -10 -10 -11 -11 -12
7 8 7 6 3 1 2 1 2 4 3 3 3 2 2 1 1 0 -0 -1 -1 -1 -2 -2 -2 -2 -3 -4 -4 -4 -5 -5 -6 -7 -8 -8 -9 -9 -10 -10 -11 -11 -12 -12
7 6 5 3 2 2 3 3 3 3 3 2 1 1 1 1 0 -0 -1 -1 -1 -2 -2 -2 -2 -3 -4 -4 -4 -5 -5 -6 -6 -8 -8 -9 -10 -10 -10 -11 -12 -12 -12 -12
6 5 4 3 3 3 3 3 3 2 1 1 1 -0 -1 -1 -1 -1 -2 -3 -2 -2 -3 -3 -3 -4 -4 -4 -4 -5 -6 -7 -8 -8 -9 -10 -10 -10 -11 -12 -12 -12 -12 -12
4 3 2 2 3 2 2 2 1 1 0 -0 -1 -1 -2 -2 -3 -3 -4 -3 -3 -3 -3 -3 -3 -3 -4 -5 -6 -6 -7 -7 -8 -9 -10 -10 -11 -11 -12 -12 -12 -13 -13 -13
3 3 2 1 1 1 2 1 0 -0 -0 -1 -1 -2 -3 -3 -3 -4 -3 -3 -3 -4 -4 -4 -4 -4 -5 -7 -7 -7 -7 -8 -9 -9 -10 -10 -11 -12 -12 -12 -13 -13 -13 -14
2 1 1 1 1 1 1 1 0 -1 -1 -1 -2 -3 -4 -4 -4 -4 -4 -3 -4 -4 -4 -5 -5 -5 -8 -8 -8 -8 -8 -8 -9 -10 -10 -11 -11 -12 -12 -13 -13 -13 -14 -14
2 2 2 2 1 0 0 0 -0 -1 -1 -2 -3 -3 -4 -4 -5 -5 -4 -4 -4 -5 -5 -5 -5 -7 -9 -9 -9 -8 -8 -9 -10 -11 -11 -11 -12 -12 -13 -13 -13 -14 -14 -14
1 1 1 1 0 0 -0 -1 -1 -1 -1 -2 -3 -3 -4 -4 -5 -5 -5 -5 -5 -5 -5 -6 -7 -9 -8 -9 -8 -9 -9 -10 -10 -11 -11 -11 -12 -12 -13 -13 -14 -14 -15 -15
0 -0 -0 -0 -0 -1 -1 -1 -1 -1 -2 -3 -4 -4 -4 -5 -5 -5 -6 -6 -6 -7 -7 -7 -9 -9 -9 -9 -7 -8 -9 -10 -10 -11 -11 -11 -11 -12 -13 -13 -14 -14 -15 -15
-1 -1 -1 -1 -1 -1 -1 -2 -2 -2 -2 -3 -4 -4 -5 -5 -5 -5 -6 -7 -8 -8 -9 -9 -9 -9 -9 -7 -7 -9 -10 -10 -10 -11 -11 -11 -12 -12 -12 -13 -14 -14 -15 -15
-1 -1 -2 -2 -2 -2 -2 -2 -2 -2 -3 -3 -3 -4 -5 -5 -5 -6 -6 -7 -8 -8 -9 -9 -9 -9 -10 -9 -8 -10 -10 -10 -11 -10 -10 -11 -12 -12 -12 -13 -13 -14 -14 -14
-1 -2 -2 -2 -2 -3 -3 -3 -3 -3 -3 -4 -4 -5 -5 -5 -5 -6 -7 -8 -8 -9 -9 -9 -9 -9 -9 -10 -10 -10 -10 -10 -11 -10 -10 -10 -11 -12 -12 -13 -13 -14 -14 -13
-2 -2 -2 -3 -3 -3 -4 -4 -3 -3 -3 -4 -4 -5 -5 -5 -5 -6 -6 -6 -8 -9 -9 -9 -9 -9 -10 -10 -10 -10 -10 -11 -10 -9 -9 -10 -10 -11 -12 -12 -13 -13 -13 -13
-2 -2 -3 -4 -4 -4 -4 -4 -4 -4 -4 -4 -5 -5 -5 -5 -6 -6 -6 -6 -8 -9 -9 -9 -9 -9 -9 -9 -9 -9 -10 -10 -9 -10 -10 -10 -10 -11 -11 -12 -13 -13 -13 -13
-2 -3 -3 -5 -5 -5 -4 -4 -4 -4 -5 -5 -5 -5 -5 -5 -6 -6 -7 -7 -9 -9 -9 -10 -10 -10 -10 -10 -9 -9 -10 -10 -10 -10 -10 -10 -10 -10 -11 -11 -12 -13 -13 -13

GFSNGP_850_temp_012.txt.gz
Temp
7 8 7 8 8 8 7 7 7 9 7 8 8 7 8 9 9 9 8 7 7 6 6 6 6 5 6 5 3 3 2 1 1 -1 -1 -1 -1 -1 -2 -2 -3 -3 -3 -3
6 5 5 5 6 7 7 7 6 7 6 8 9 8 8 9 8 8 7 6 5 4 4 4 5 5 4 3 3 2 1 -0 -1 -2 -2 -2 -2 -3 -3 -4 -3 -3 -3 -4
4 4 4 5 8 7 8 7 7 7 8 8 7 7 7 7 7 6 5 4 4 4 5 4 3 3 3 3 1 1 -0 -1 -3 -3 -3 -4 -4 -3 -3 -3 -3 -4 -4 -4
2 5 5 9 8 9 7 7 7 6 6 7 8 7 7 7 7 4 3 3 4 4 3 3 3 2 1 1 0 -0 -1 -2 -2 -2 -3 -2 -2 -3 -3 -4 -4 -5 -5 -5
6 6 5 9 9 10 9 7 8 7 7 8 8 7 7 6 5 3 3 2 3 3 2 3 2 1 -0 -1 -1 -2 -2 -2 -2 -2 -3 -3 -3 -4 -4 -5 -5 -6 -6 -7
3 5 5 7 8 9 8 5 8 8 8 8 7 4 5 2 1 1 2 3 2 2 2 2 1 -0 -1 -1 -2 -2 -2 -3 -3 -3 -3 -3 -4 -5 -5 -6 -6 -7 -7 -8
3 4 4 5 8 8 6 7 8 8 7 6 4 3 1 2 2 3 3 3 2 2 2 0 -1 -1 -1 -1 -2 -3 -3 -4 -3 -3 -4 -4 -5 -6 -6 -7 -7 -7 -8 -8
2 4 4 8 8 7 9 8 7 7 5 4 3 2 2 3 4 3 3 2 2 1 1 -0 -1 -1 -3 -3 -3 -4 -3 -3 -4 -4 -4 -5 -5 -6 -7 -7 -7 -8 -9 -8
6 4 7 8 8 9 8 7 6 5 3 2 1 1 3 3 3 3 2 2 1 1 0 -1 -1 -2 -2 -2 -2 -3 -3 -4 -4 -4 -5 -6 -6 -7 -7 -8 -9 -9 -10 -10
6 7 7 9 9 7 6 5 4 3 1 1 2 3 3 2 3 3 2 1 1 0 -1 -1 -2 -2 -2 -2 -3 -3 -4 -4 -5 -5 -5 -6 -7 -8 -8 -9 -9 -10 -11 -11
4 7 7 8 7 6 5 3 2 1 2 3 3 3 3 2 2 2 1 1 0 -0 -1 -1 -2 -2 -2 -2 -3 -4 -4 -4 -5 -5 -6 -6 -7 -8 -9 -9 -10 -11 -11 -12
6 8 7 6 5 4 2 2 3 3 3 2 2 2 2 1 1 1 0 0 -0 -1 -1 -1 -2 -2 -2 -3 -3 -4 -4 -5 -5 -6 -6 -7 -8 -8 -9 -10 -10 -11 -12 -12
7 7 5 5 4 3 2 3 2 2 2 2 2 1 1 1 0 0 -0 -1 -1 -1 -2 -2 -2 -3 -3 -3 -4 -4 -5 -5 -6 -6 -7 -7 -8 -9 -9 -10 -11 -12 -12 -12
7 6 5 3 2 2 1 2 2 3 3 2 1 1 0 -0 -0 -1 -2 -2 -2 -3 -3 -3 -3 -3 -4 -4 -4 -5 -5 -6 -7 -7 -7 -9 -9 -10 -11 -11 -12 -12 -12 -13
5 4 3 2 1 2 2 2 2 2 1 1 0 -1 -1 -2 -2 -3 -3 -3 -3 -4 -3 -3 -3 -4 -4 -4 -4 -6 -6 -7 -7 -7 -8 -9 -10 -10 -11 -12 -12 -12 -13 -13
2 2 1 1 1 1 2 1 1 1 0 0 -1 -1 -2 -3 -3 -4 -3 -3 -4 -4 -4 -4 -4 -4 -4 -5 -7 -8 -7 -7 -7 -8 -10 -10 -10 -11 -11 -12 -12 -13 -13 -14
2 1 1 1 1 2 1 1 0 0 -0 -0 -1 -1 -2 -3 -4 -4 -4 -5 -4 -4 -4 -4 -4 -5 -5 -8 -9 -9 -8 -8 -8 -9 -10 -10 -11 -11 -12 -13 -13 -13 -14 -14
2 1 2 1 1 1 1 0 -0 -1 -1 -1 -1 -2 -2 -3 -3 -4 -4 -5 -5 -5 -5 -5 -6 -6 -8 -9 -9 -9 -9 -8 -9 -9 -9 -10 -11 -11 -12 -13 -13 -14 -14 -14
1 1 1 1 0 -0 -0 -0 -1 -1 -1 -1 -1 -2 -3 -3 -3 -5 -5 -6 -6 -5 -6 -6 -6 -8 -9 -9 -10 -9 -9 -9 -10 -11 -10 -10 -11 -11 -12 -13 -13 -14 -14 -15
0 0 -0 -1 -1 -1 -1 -1 -1 -2 -2 -2 -2 -3 -4 -4 -5 -5 -6 -5 -6 -6 -6 -6 -7 -9 -9 -9 -9 -9 -10 -10 -10 -11 -10 -10 -11 -11 -12 -13 -13 -14 -14 -15
-1 -1 -1 -1 -1 -1 -1 -2 -2 -2 -2 -2 -2 -3 -4 -3 -5 -5 -6 -5 -6 -7 -7 -8 -9 -9 -9 -10 -9 -9 -10 -10 -10 -10 -10 -10 -11 -11 -12 -13 -13 -14 -14 -14
-1 -1 -2 -2 -2 -2 -2 -2 -3 -3 -3 -3 -3 -3 -4 -4 -5 -6 -6 -5 -6 -7 -9 -9 -9 -9 -10 -10 -10 -10 -10 -10 -10 -11 -11 -10 -11 -11 -12 -12 -13 -13 -14 -14
-1 -2 -2 -2 -2 -2 -2 -3 -3 -3 -4 -4 -3 -3 -4 -4 -5 -6 -5 -5 -6 -8 -9 -9 -9 -10 -10 -10 -10 -10 -10 -10 -10 -11 -10 -10 -10 -11 -12 -12 -12 -13 -13 -13
-2 -2 -2 -2 -2 -2 -3 -3 -4 -4 -4 -4 -4 -4 -4 -5 -6 -5 -5 -6 -6 -7 -8 -9 -9 -10 -9 -10 -10 -10 -10 -11 -11 -11 -10 -10 -10 -10 -11 -11 -12 -12 -13 -13
-2 -2 -2 -2 -3 -4 -5 -5 -4 -4 -4 -4 -4 -4 -4 -5 -6 -5 -6 -6 -7 -7 -8 -9 -9 -10 -10 -10 -10 -10 -10 -10 -10 -10 -10 -10 -10 -10 -10 -11 -12 -12 -12 -12
-2 -2 -2 -3 -4 -5 -5 -5 -5 -4 -5 -5 -5 -5 -5 -6 -6 -6 -6 -7 -6 -8 -9 -9 -10 -10 -10 -10 -10 -10 -10 -10 -10 -10 -10 -10 -10 -10 -10 -11 -11 -12 -12 -12
-2 -2 -2 -2 -4 -5 -5 -5 -5 -5 -5 -5 -5 -5 -5 -5 -5 -6 -6 -7 -8 -9 -9 -9 -10 -10 -10 -11 -11 -11 -10 -10 -10 -10 -10 -11 -11 -11 -11 -11 -11 -12 -12 -12

GFSNGP_850_temp_015.txt.gz
Temp
9 9 8 9 9 9 9 9 9 11 11 11 11 9 9 8 8 8 7 6 5 5 4 4 4 4 4 3 3 2 1 1 -0 -1 -2 -2 -2 -3 -3 -3 -3 -3 -3 -3
7 6 7 6 8 8 8 9 8 9 9 10 8 7 8 7 7 6 5 4 3 3 4 4 3 3 3 3 2 0 -0 -0 -2 -2 -2 -2 -2 -2 -3 -3 -3 -3 -4 -4
7 5 6 7 9 8 9 9 9 9 11 8 9 8 8 7 6 4 2 2 3 4 4 2 2 2 2 1 -0 -1 -1 -2 -2 -2 -2 -2 -3 -3 -3 -3 -4 -4 -5 -5
6 5 9 11 9 10 9 9 8 8 8 8 8 8 6 4 3 2 3 3 4 3 2 2 2 2 1 -0 -1 -1 -2 -2 -3 -3 -3 -3 -3 -4 -4 -4 -5 -5 -5 -6
6 7 7 10 10 9 9 9 9 8 8 8 8 7 7 3 2 2 4 4 3 2 2 2 2 1 -0 -1 -1 -2 -2 -3 -3 -3 -3 -3 -4 -4 -5 -5 -6 -6 -7 -7
5 6 7 9 9 8 8 9 8 8 7 7 7 5 7 2 2 3 3 3 2 2 2 2 1 -0 -1 -1 -2 -2 -3 -3 -3 -4 -4 -4 -4 -5 -6 -6 -7 -7 -8 -8
6 5 6 7 7 8 7 8 8 7 7 6 5 3 2 1 3 3 3 3 2 2 1 1 0 -0 -1 -2 -2 -3 -4 -3 -4 -4 -4 -4 -5 -6 -6 -7 -7 -8 -8 -9
3 4 5 7 8 8 8 7 6 6 5 4 3 2 1 3 2 3 2 2 2 1 1 1 0 -0 -1 -2 -2 -3 -3 -3 -4 -4 -5 -5 -5 -6 -7 -8 -8 -8 -9 -10
7 7 8 8 8 8 6 5 4 4 3 2 2 2 3 2 2 2 2 2 1 1 1 0 -0 -1 -1 -2 -2 -3 -3 -4 -4 -5 -5 -5 -6 -7 -7 -8 -9 -10 -10 -11
6 8 8 9 8 6 5 4 3 3 3 3 2 2 2 2 2 1 1 1 1 0 0 -0 -1 -1 -2 -2 -2 -3 -3 -4 -4 -5 -5 -6 -6 -7 -8 -9 -10 -11 -11 -12
5 7 7 8 7 5 4 2 2 2 2 2 2 2 2 2 1 1 0 0 -0 -1 -1 -1 -2 -2 -3 -3 -3 -4 -4 -4 -5 -6 -6 -7 -7 -8 -9 -10 -10 -11 -12 -12
7 8 6 5 4 3 2 2 2 2 2 3 2 2 1 1 0 -0 -0 -1 -1 -2 -2 -2 -3 -4 -3 -3 -3 -4 -4 -5 -5 -6 -7 -7 -8 -8 -9 -10 -11 -11 -12 -12
7 6 4 3 2 2 1 2 2 2 2 2 2 1 0 0 -0 -1 -1 -2 -3 -4 -3 -4 -4 -3 -4 -4 -4 -4 -5 -6 -6 -7 -7 -8 -8 -9 -9 -10 -11 -12 -12 -13
5 5 4 2 1 1 2 2 2 2 2 1 1 1 0 -0 -1 -1 -2 -2 -3 -3 -4 -4 -4 -4 -4 -4 -4 -5 -6 -7 -7 -7 -8 -8 -9 -9 -10 -11 -11 -12 -12 -13
3 4 2 1 1 1 2 2 2 2 1 1 0 -0 -1 -1 -1 -2 -2 -3 -4 -4 -5 -5 -5 -5 -5 -5 -5 -8 -8 -8 -8 -8 -8 -9 -9 -10 -10 -11 -12 -12 -13 -13
1 1 1 2 2 2 1 1 1 1 -0 -0 -1 -1 -1 -1 -2 -2 -3 -4 -5 -5 -5 -5 -5 -5 -6 -6 -9 -9 -9 -8 -8 -8 -9 -9 -9 -10 -10 -11 -12 -13 -13 -14
2 2 2 1 1 0 0 0 -0 -1 -1 -1 -1 -1 -1 -2 -2 -2 -3 -4 -5 -6 -6 -6 -6 -6 -7 -8 -9 -9 -9 -9 -9 -9 -9 -10 -10 -10 -10 -11 -12 -13 -14 -14
1 1 0 0 -0 -0 -0 -0 -1 -1 -1 -1 -2 -2 -2 -2 -3 -3 -4 -6 -6 -6 -6 -6 -7 -7 -8 -9 -10 -10 -9 -9 -10 -10 -10 -10 -10 -11 -11 -11 -12 -13 -13 -14
1 0 0 -0 -0 -1 -1 -1 -2 -2 -2 -2 -2 -3 -3 -3 -4 -4 -4 -5 -6 -6 -6 -6 -7 -7 -9 -10 -10 -10 -10 -10 -10 -10 -10 -10 -11 -11 -11 -11 -12 -12 -13 -14
0 -0 -1 -1 -1 -2 -2 -2 -2 -2 -2 -3 -3 -3 -3 -3 -4 -4 -5 -5 -6 -6 -6 -7 -7 -9 -10 -10 -10 -10 -10 -10 -10 -10 -10 -11 -10 -11 -11 -11 -12 -12 -13 -13
-1 -1 -2 -2 -2 -2 -2 -2 -2 -2 -2 -3 -4 -4 -4 -3 -3 -4 -5 -6 -6 -6 -7 -8 -9 -9 -10 -10 -11 -10 -10 -10 -10 -10 -11 -10 -10 -10 -11 -11 -12 -12 -12 -13
-1 -2 -2 -2 -2 -2 -2 -2 -3 -3 -3 -4 -4 -4 -5 -4 -4 -4 -5 -6 -6 -6 -7 -8 -9 -10 -10 -10 -11 -11 -10 -10 -10 -10 -11 -10 -10 -10 -10 -11 -11 -12 -12 -12
-2 -2 -2 -2 -2 -2 -2 -2 -3 -4 -4 -4 -4 -5 -5 -4 -4 -5 -5 -6 -6 -6 -7 -8 -9 -10 -10 -10 -10 -10 -11 -10 -11 -11 -11 -10 -10 -10 -10 -11 -11 -12 -12 -12
-2 -2 -2 -2 -2 -2 -2 -2 -3 -4 -4 -4 -4 -5 -5 -5 -5 -5 -6 -6 -6 -7 -7 -8 -9 -10 -10 -10 -10 -10 -10 -10 -10 -10 -10 -10 -10 -10 -10 -10 -11 -12 -12 -12
-2 -2 -2 -2 -2 -2 -2 -4 -4 -5 -5 -5 -5 -5 -5 -5 -5 -6 -6 -6 -7 -7 -7 -8 -9 -10 -10 -10 -10 -10 -10 -10 -10 -10 -10 -10 -10 -10 -10 -11 -11 -11 -12 -12
-2 -2 -2 -3 -3 -3 -3 -5 -6 -6 -5 -6 -5 -5 -6 -6 -6 -6 -6 -7 -7 -8 -8 -8 -9 -10 -10 -10 -10 -10 -10 -10 -10 -10 -10 -10 -11 -10 -10 -11 -11 -11 -12 -12
-2 -2 -3 -3 -4 -4 -6 -6 -6 -6 -6 -6 -5 -5 -6 -5 -5 -6 -6 -6 -6 -7 -8 -9 -9 -10 -10 -11 -11 -11 -11 -10 -10 -10 -10 -10 -10 -11 -11 -11 -11 -11 -12 -12

GFSNGP_850_temp_021.txt.gz
Temp
16 17 17 17 16 16 16 16 14 15 16 17 17 16 14 14 13 12 12 11 10 8 7 7 7 6 5 4 4 3 2 2 2 1 -0 -1 -1 -1 -1 -2 -2 -2 -2 -3
13 16 16 15 16 16 16 16 16 16 16 17 15 15 14 13 11 11 10 9 6 6 7 6 6 6 5 4 3 3 2 2 1 0 -1 -2 -2 -2 -2 -2 -2 -3 -3 -3
12 13 12 11 14 16 16 16 15 14 15 16 15 13 11 10 9 10 7 5 4 6 6 6 6 5 4 4 3 3 2 2 1 -1 -1 -2 -2 -2 -2 -3 -3 -3 -4 -4
9 8 11 15 16 16 15 15 16 16 16 15 13 11 10 8 7 6 4 4 6 6 6 6 5 5 4 4 3 3 3 2 -0 -1 -2 -2 -2 -2 -3 -3 -3 -4 -4 -4
9 12 13 15 14 14 13 13 15 15 14 13 11 9 10 5 4 5 5 5 6 6 5 5 5 5 4 3 3 3 2 2 0 -2 -2 -2 -2 -3 -3 -3 -4 -4 -5 -6
8 9 10 14 15 13 13 12 13 12 11 10 9 7 8 4 4 4 5 6 6 6 5 5 5 4 4 3 3 2 2 1 -0 -1 -2 -2 -3 -3 -3 -4 -4 -5 -6 -7
8 8 11 14 13 12 10 11 11 9 7 6 5 4 4 4 5 5 6 6 5 5 5 4 4 3 3 3 3 2 1 0 -0 -2 -3 -3 -3 -3 -3 -4 -5 -6 -7 -7
8 7 8 13 13 9 10 9 8 6 4 3 4 5 5 5 5 5 6 6 6 5 4 3 2 2 2 3 2 1 0 -1 -2 -3 -4 -4 -4 -4 -4 -5 -5 -7 -7 -8
12 12 14 13 12 10 9 8 6 4 3 4 5 6 5 5 5 6 5 5 4 3 3 2 2 1 1 1 -0 -1 -2 -3 -3 -4 -4 -4 -4 -4 -5 -5 -6 -8 -9 -9
11 13 13 12 10 7 6 5 4 4 5 5 5 5 5 5 5 5 4 4 3 2 2 1 1 1 -0 -1 -3 -3 -4 -3 -4 -4 -4 -4 -4 -4 -5 -7 -8 -9 -9 -10
11 12 11 9 6 5 4 3 4 5 5 5 5 5 5 4 4 3 3 2 2 1 1 1 0 -0 -1 -3 -4 -4 -4 -4 -4 -4 -5 -6 -6 -6 -7 -8 -8 -9 -10 -11
9 10 7 6 5 5 4 5 5 4 4 4 4 4 4 3 2 2 2 1 1 1 1 0 -0 -2 -4 -4 -5 -6 -5 -5 -5 -5 -6 -6 -7 -7 -7 -8 -9 -9 -10 -11
10 7 6 5 4 4 5 4 4 4 4 4 4 4 3 2 2 1 1 1 1 -0 -0 -1 -3 -4 -5 -5 -6 -6 -6 -7 -7 -7 -7 -7 -8 -8 -8 -9 -9 -10 -10 -11
6 5 3 4 4 4 4 4 4 4 4 3 3 2 2 1 1 0 0 -0 -1 -2 -3 -4 -4 -5 -6 -6 -6 -7 -8 -8 -8 -8 -8 -8 -8 -9 -9 -9 -9 -10 -10 -11
4 4 5 4 4 4 4 4 3 3 2 2 1 1 -0 -1 -1 -1 -1 -1 -3 -5 -5 -5 -5 -6 -6 -6 -7 -8 -8 -8 -8 -8 -8 -9 -9 -9 -9 -10 -10 -10 -10 -11
5 5 5 4 4 4 3 3 2 2 1 0 -1 -1 -2 -2 -2 -3 -3 -3 -4 -5 -5 -5 -5 -6 -6 -7 -8 -7 -7 -8 -9 -9 -9 -9 -9 -9 -10 -10 -10 -10 -10 -11
4 4 4 3 3 3 2 2 1 -0 -1 -2 -2 -2 -2 -2 -2 -3 -4 -4 -5 -4 -5 -5 -5 -7 -7 -7 -8 -8 -8 -8 -9 -9 -9 -9 -9 -10 -10 -10 -10 -11 -11 -12
3 3 3 2 2 2 1 -0 -1 -2 -2 -2 -2 -2 -2 -2 -3 -4 -4 -5 -5 -5 -5 -5 -6 -6 -7 -8 -8 -9 -9 -9 -9 -9 -9 -9 -9 -10 -10 -10 -10 -11 -11 -12
2 2 2 1 1 -0 -1 -2 -2 -2 -1 -2 -2 -2 -3 -3 -4 -4 -4 -5 -5 -5 -5 -5 -6 -6 -7 -9 -9 -9 -9 -9 -9 -9 -9 -9 -10 -10 -10 -10 -10 -11 -11 -12
1 1 1 0 -0 -1 -1 -1 -2 -2 -2 -2 -2 -3 -3 -4 -4 -4 -5 -5 -5 -5 -5 -6 -6 -6 -8 -9 -9 -10 -9 -9 -9 -9 -9 -9 -9 -9 -10 -10 -11 -11 -11 -12
1 1 1 0 -1 -1 -1 -2 -2 -2 -2 -2 -3 -4 -5 -5 -6 -5 -5 -5 -5 -5 -5 -6 -6 -8 -8 -8 -9 -9 -9 -9 -9 -9 -9 -9 -9 -9 -10 -10 -10 -11 -11 -12
-0 -1 -0 -1 -1 -2 -2 -2 -2 -2 -2 -2 -3 -6 -6 -6 -6 -6 -5 -5 -5 -5 -6 -6 -7 -8 -8 -8 -9 -9 -9 -9 -9 -9 -9 -9 -9 -9 -10 -10 -10 -11 -11 -12
-0 -1 -1 -1 -2 -2 -2 -2 -2 -2 -3 -3 -5 -6 -6 -6 -6 -6 -5 -5 -6 -6 -6 -6 -7 -7 -7 -8 -8 -9 -9 -9 -9 -9 -9 -9 -9 -10 -10 -10 -10 -11 -11 -12
-1 -2 -2 -2 -2 -2 -2 -3 -3 -4 -4 -4 -5 -5 -6 -6 -6 -6 -5 -6 -6 -6 -6 -6 -7 -7 -8 -8 -9 -9 -9 -9 -9 -10 -9 -9 -9 -10 -10 -10 -10 -11 -11 -12
-2 -2 -2 -2 -2 -3 -2 -3 -4 -3 -4 -5 -5 -6 -6 -6 -6 -6 -6 -6 -6 -6 -6 -6 -6 -6 -7 -9 -9 -9 -9 -9 -10 -10 -10 -10 -10 -10 -10 -10 -11 -11 -11 -11
-2 -3 -3 -3 -3 -3 -3 -3 -4 -5 -6 -6 -5 -6 -7 -7 -6 -6 -6 -6 -7 -6 -6 -6 -6 -7 -7 -8 -9 -9 -9 -10 -10 -10 -10 -10 -10 -10 -10 -10 -10 -11 -11 -11
-3 -3 -3 -3 -3 -3 -3 -4 -4 -5 -6 -6 -6 -6 -7 -7 -6 -6 -6 -6 -7 -7 -6 -7 -7 -7 -8 -8 -9 -9 -10 -10 -10 -11 -10 -9 -10 -10 -10 -10 -10 -11 -11 -11

GFSNGP_850_temp_024.txt.gz
Temp
17 17 18 17 17 17 17 17 14 15 16 17 17 16 15 12 12 11 11 11 9 7 7 7 7 7 6 6 5 4 4 3 3 2 1 0 -0 -1 -2 -2 -2 -2 -2 -3
13 17 16 15 16 16 17 17 17 16 16 18 16 13 13 12 12 11 9 8 7 6 6 7 7 6 6 5 5 4 4 3 3 2 0 -0 -1 -1 -2 -2 -2 -3 -3 -3
12 12 11 11 14 16 16 17 16 14 16 17 14 12 11 10 10 8 7 6 6 6 7 7 6 6 6 5 5 3 3 3 3 2 -0 -1 -1 -2 -2 -2 -3 -3 -3 -4
9 8 10 16 17 17 16 16 16 16 16 14 12 11 11 8 6 6 6 6 6 7 7 6 6 6 5 5 4 4 3 3 3 1 -0 -1 -2 -2 -2 -3 -3 -3 -4 -4
9 11 13 15 15 14 13 13 15 14 12 11 10 9 10 6 5 5 5 6 6 7 6 6 5 5 4 4 4 4 4 1 0 -1 -1 -1 -2 -2 -2 -3 -3 -4 -5 -5
8 8 10 14 15 14 14 11 12 11 10 9 8 6 6 6 5 6 6 7 6 6 6 5 5 4 3 3 3 3 1 -0 -1 -1 -2 -1 -2 -4 -3 -3 -3 -4 -5 -5
9 8 10 14 14 13 11 10 9 8 7 6 6 5 5 6 6 6 6 6 6 6 5 4 4 3 2 2 2 1 0 -0 -1 -1 -1 -2 -3 -5 -4 -4 -4 -5 -5 -6
8 8 8 14 13 9 10 9 8 7 6 5 5 6 6 6 6 6 6 6 5 4 4 3 3 2 2 1 1 -0 -1 -1 -2 -2 -3 -3 -4 -4 -4 -4 -5 -5 -6 -7
11 10 13 12 11 9 8 7 6 6 5 5 6 6 6 6 6 5 5 4 4 3 3 2 2 2 1 0 -1 -1 -3 -3 -4 -4 -4 -4 -4 -5 -4 -5 -5 -6 -8 -9
12 13 14 10 8 7 6 5 5 5 6 6 6 5 5 5 5 4 4 3 3 2 2 2 2 1 0 -1 -2 -3 -4 -4 -5 -5 -5 -4 -5 -5 -5 -6 -6 -7 -9 -9
12 13 12 8 6 6 6 5 5 6 6 5 5 5 5 5 4 4 3 2 2 2 2 1 0 -0 -1 -3 -3 -4 -5 -5 -5 -5 -5 -5 -6 -6 -6 -7 -7 -8 -9 -10
10 11 10 8 6 6 5 5 6 5 5 5 5 5 4 3 3 2 2 1 1 1 0 -0 -1 -2 -3 -4 -4 -5 -5 -6 -6 -6 -6 -6 -6 -7 -8 -8 -8 -9 -9 -10
10 8 6 5 5 5 6 5 5 4 5 5 4 3 3 2 2 1 1 0 -0 -0 -1 -2 -3 -4 -4 -5 -5 -5 -6 -7 -8 -8 -7 -7 -8 -8 -8 -9 -9 -9 -9 -10
8 6 5 5 5 5 5 5 5 5 4 3 3 2 1 0 -0 -1 -1 -1 -1 -2 -2 -4 -5 -5 -5 -6 -6 -6 -6 -7 -8 -8 -8 -8 -8 -9 -9 -9 -9 -9 -9 -10
6 6 5 4 5 5 5 5 4 4 3 2 1 0 -1 -1 -2 -2 -2 -2 -3 -3 -4 -4 -5 -5 -5 -7 -6 -7 -7 -7 -8 -8 -8 -9 -9 -9 -9 -9 -9 -9 -10 -10
6 6 6 5 5 5 4 4 3 2 1 0 -1 -1 -2 -2 -2 -2 -2 -3 -3 -4 -5 -5 -5 -5 -5 -6 -7 -7 -7 -7 -8 -9 -9 -9 -9 -9 -9 -9 -10 -10 -10 -10
5 5 5 4 4 3 3 2 1 0 -1 -1 -2 -2 -1 -1 -1 -2 -2 -2 -4 -5 -5 -5 -5 -5 -7 -7 -7 -8 -8 -8 -9 -9 -9 -9 -9 -9 -10 -10 -10 -10 -10 -10
5 4 4 3 3 2 2 1 0 -1 -1 -1 -1 -1 -1 -2 -2 -2 -3 -4 -5 -5 -5 -5 -5 -5 -5 -6 -7 -8 -9 -9 -9 -9 -8 -9 -9 -9 -10 -9 -10 -10 -10 -11
3 3 3 2 2 1 0 -0 -1 -1 -1 -1 -2 -2 -2 -2 -2 -4 -5 -5 -5 -5 -5 -5 -5 -6 -6 -6 -9 -9 -9 -9 -9 -9 -9 -8 -9 -9 -9 -9 -10 -10 -10 -11
2 2 1 1 1 0 0 -0 -1 -1 -1 -2 -2 -2 -2 -2 -4 -5 -6 -6 -6 -5 -5 -5 -5 -6 -6 -6 -8 -9 -9 -9 -9 -9 -9 -8 -8 -9 -9 -10 -10 -10 -10 -11
1 1 1 1 0 -0 -1 -1 -1 -2 -2 -2 -2 -3 -3 -3 -6 -6 -6 -6 -5 -5 -5 -5 -6 -6 -7 -7 -8 -8 -9 -9 -9 -9 -8 -8 -8 -8 -9 -9 -10 -10 -10 -10
1 1 1 0 -0 -1 -1 -2 -2 -2 -2 -2 -3 -3 -4 -5 -6 -6 -6 -6 -6 -5 -5 -6 -6 -7 -7 -8 -8 -8 -8 -9 -9 -9 -9 -9 -9 -9 -9 -10 -10 -10 -10 -11
1 0 -0 -1 -1 -1 -2 -2 -2 -2 -2 -3 -3 -4 -5 -5 -6 -6 -6 -6 -6 -6 -6 -6 -6 -7 -7 -7 -8 -8 -8 -9 -9 -9 -9 -9 -9 -9 -9 -10 -10 -10 -11 -11
-1 -1 -1 -2 -2 -2 -2 -2 -2 -3 -3 -3 -4 -5 -5 -5 -6 -6 -6 -6 -6 -7 -6 -6 -6 -7 -7 -7 -7 -8 -8 -8 -9 -9 -9 -9 -9 -9 -9 -9 -10 -10 -11 -11
-1 -2 -2 -2 -2 -2 -2 -2 -2 -3 -3 -3 -5 -5 -5 -6 -6 -7 -7 -7 -6 -7 -7 -6 -6 -6 -7 -7 -7 -7 -8 -9 -9 -9 -10 -10 -10 -10 -10 -10 -10 -10 -10 -11
-2 -2 -2 -2 -2 -2 -2 -3 -3 -3 -3 -3 -5 -6 -6 -7 -7 -7 -7 -7 -7 -6 -7 -7 -7 -7 -7 -7 -7 -7 -8 -8 -9 -10 -10 -10 -11 -11 -11 -10 -10 -10 -10 -10
-2 -2 -2 -2 -2 -2 -2 -3 -3 -3 -4 -5 -6 -6 -7 -7 -7 -7 -7 -7 -7 -7 -7 -6 -6 -6 -7 -7 -7 -8 -8 -8 -9 -9 -10 -10 -10 -10 -11 -11 -11 -11 -11 -11

GFSNGP_850_temp_027.txt.gz
Temp
13 14 15 15 15 14 14 13 10 11 13 14 11 11 11 10 10 10 9 8 7 7 7 7 7 6 6 6 6 5 5 4 3 3 2 2 1 -0 -1 -1 -2 -2 -2 -3
12 13 12 12 12 12 13 14 14 14 14 12 11 11 9 8 8 7 6 6 6 6 6 7 6 6 6 6 5 5 4 4 3 3 1 0 -1 -1 -3 -2 -2 -2 -3 -3
7 8 7 7 12 14 15 15 14 11 12 10 9 8 7 7 6 6 6 6 6 6 6 6 6 6 5 4 4 4 3 3 2 1 0 0 -1 -2 -3 -2 -2 -3 -3 -4
4 4 6 12 14 14 13 12 12 11 10 9 9 8 7 6 6 6 6 6 6 6 6 6 6 5 4 3 3 3 2 1 1 1 -0 -2 -2 -3 -3 -3 -3 -3 -4 -4
5 5 8 12 14 12 11 10 10 9 8 8 8 8 6 6 6 6 6 6 6 6 5 5 4 4 3 3 2 2 1 0 0 -0 -1 -1 -2 -2 -4 -4 -4 -4 -4 -4
2 4 4 9 13 13 13 6 9 8 7 6 7 2 4 6 6 6 6 6 5 5 4 4 3 3 2 2 2 1 0 0 -0 -1 -2 -3 -3 -3 -4 -5 -4 -5 -4 -5
2 3 5 9 13 13 8 7 8 7 7 6 4 5 6 6 6 6 6 5 4 4 3 3 3 2 2 2 1 0 -0 -1 -1 -2 -3 -4 -4 -5 -5 -5 -5 -5 -5 -6
6 7 4 12 11 8 7 8 7 6 6 6 5 6 6 6 5 5 5 4 4 3 2 2 2 2 1 1 -0 -1 -1 -2 -3 -4 -4 -4 -4 -5 -5 -5 -5 -5 -6 -6
6 5 10 11 11 10 9 7 6 6 6 5 5 5 5 5 5 5 4 3 3 2 2 2 1 1 -0 -1 -1 -2 -2 -3 -4 -4 -5 -5 -5 -5 -6 -5 -6 -6 -7 -7
8 10 10 9 8 8 7 7 7 6 5 6 5 5 5 4 4 3 2 2 2 1 1 1 0 -0 -1 -1 -2 -2 -3 -4 -5 -5 -5 -5 -5 -6 -6 -6 -7 -7 -8 -9
7 10 8 7 8 7 6 6 6 5 5 5 5 5 4 3 3 2 2 1 1 0 -0 -0 -1 -1 -2 -2 -3 -4 -4 -5 -5 -5 -6 -6 -6 -7 -7 -7 -8 -8 -9 -9
4 11 10 7 6 7 6 5 5 5 5 5 4 3 3 2 2 1 1 0 -0 -1 -1 -2 -2 -2 -3 -4 -5 -5 -5 -5 -6 -6 -7 -7 -7 -8 -8 -8 -9 -9 -9 -10
9 8 9 7 6 5 6 5 5 5 4 4 3 3 2 1 1 0 -0 -1 -1 -2 -2 -3 -3 -4 -5 -5 -5 -6 -6 -6 -7 -8 -8 -8 -8 -8 -9 -9 -9 -9 -9 -10
9 8 6 6 5 5 5 5 5 4 4 3 3 2 1 0 -0 -1 -1 -2 -2 -3 -3 -3 -4 -5 -5 -5 -5 -7 -7 -7 -7 -8 -9 -9 -9 -9 -9 -9 -9 -9 -10 -10
7 6 6 6 5 5 5 4 4 3 3 2 1 1 -0 -1 -1 -1 -2 -2 -3 -3 -3 -4 -5 -5 -5 -5 -7 -7 -7 -7 -7 -8 -9 -9 -9 -9 -10 -10 -9 -10 -10 -10
6 5 5 5 5 4 4 3 3 2 2 1 0 -0 -1 -2 -2 -2 -2 -2 -3 -3 -4 -6 -5 -6 -6 -6 -7 -7 -7 -8 -8 -8 -9 -9 -9 -9 -10 -9 -10 -10 -10 -10
6 5 5 4 4 3 3 2 2 2 1 -0 -1 -2 -2 -2 -2 -2 -2 -2 -4 -6 -6 -6 -6 -6 -5 -6 -7 -7 -8 -8 -9 -9 -9 -9 -8 -9 -9 -10 -10 -10 -10 -10
3 3 3 3 3 2 2 2 1 1 -0 -1 -2 -2 -2 -2 -2 -2 -3 -3 -3 -5 -6 -6 -6 -6 -6 -6 -6 -7 -8 -9 -10 -9 -9 -9 -9 -9 -9 -9 -10 -10 -10 -10
3 3 2 2 2 2 1 1 0 -1 -1 -1 -2 -2 -2 -2 -3 -3 -4 -6 -6 -6 -5 -5 -5 -6 -6 -6 -7 -8 -8 -9 -9 -9 -10 -9 -9 -9 -9 -9 -9 -10 -10 -10
2 2 2 2 1 1 0 -0 -1 -1 -1 -2 -2 -2 -2 -3 -3 -4 -6 -6 -6 -6 -6 -6 -6 -6 -6 -6 -7 -8 -8 -8 -10 -9 -9 -9 -9 -9 -9 -9 -9 -9 -10 -10
2 2 1 1 0 -0 -0 -1 -1 -1 -2 -2 -2 -2 -3 -3 -4 -6 -6 -6 -6 -6 -5 -5 -6 -6 -6 -7 -7 -8 -8 -8 -9 -9 -9 -9 -9 -9 -9 -9 -9 -9 -10 -10
1 1 0 -0 -0 -0 -1 -1 -1 -2 -2 -2 -2 -3 -3 -3 -4 -5 -5 -6 -6 -6 -6 -6 -6 -6 -7 -7 -8 -8 -8 -8 -8 -9 -9 -9 -9 -9 -9 -9 -10 -10 -10 -10
0 -0 -0 -1 -1 -1 -1 -1 -2 -2 -2 -2 -3 -3 -3 -4 -5 -5 -5 -6 -6 -7 -7 -7 -7 -7 -7 -7 -7 -8 -8 -8 -8 -8 -9 -9 -9 -9 -9 -9 -9 -10 -10 -11
-0 -1 -1 -1 -1 -1 -1 -1 -2 -2 -2 -3 -3 -3 -4 -4 -4 -6 -6 -6 -7 -7 -7 -7 -7 -7 -7 -7 -7 -7 -7 -7 -8 -8 -9 -9 -9 -10 -10 -10 -10 -10 -10 -10
-1 -1 -1 -1 -2 -1 -2 -2 -2 -2 -3 -3 -3 -4 -4 -5 -6 -6 -7 -7 -7 -7 -7 -7 -7 -7 -7 -7 -7 -7 -7 -7 -7 -8 -9 -9 -10 -10 -10 -10 -10 -10 -10 -10
-2 -2 -2 -2 -2 -2 -2 -3 -3 -3 -3 -3 -4 -4 -5 -6 -7 -7 -7 -7 -7 -7 -7 -7 -7 -7 -7 -7 -7 -7 -7 -7 -7 -8 -8 -9 -9 -10 -10 -11 -11 -11 -10 -10
-2 -2 -2 -2 -2 -2 -3 -3 -4 -4 -4 -4 -4 -5 -6 -7 -7 -7 -7 -7 -8 -8 -8 -7 -7 -7 -7 -7 -7 -7 -7 -7 -7 -8 -9 -9 -9 -10 -10 -10 -10 -10 -11 -11

GFSNGP_850_temp_030.txt.gz
Temp
13 12 14 14 14 13 12 11 9 10 10 10 9 8 9 9 8 8 7 7 6 6 6 6 6 6 6 6 5 5 4 4 3 3 2 2 0 -0 -1 -2 -3 -3 -3 -2
12 10 10 12 11 11 11 13 13 10 9 9 9 9 8 8 8 7 6 6 6 6 6 6 6 5 5 4 4 4 3 3 2 2 1 0 -0 -1 -1 -2 -3 -4 -4 -3
7 6 7 7 11 13 14 12 13 10 8 8 7 7 6 6 6 6 6 6 6 6 5 5 5 4 4 3 3 2 2 2 1 1 0 -0 -1 -1 -1 -2 -3 -4 -5 -5
3 3 6 11 11 13 9 9 9 8 7 8 8 7 6 6 6 6 6 6 5 5 5 5 4 4 3 2 2 1 1 1 0 -0 -0 -1 -2 -3 -3 -3 -4 -5 -5 -5
3 4 8 11 12 11 11 8 9 8 7 7 7 6 5 6 6 6 6 5 5 5 4 4 3 3 2 2 1 1 1 0 -0 -1 -2 -2 -3 -4 -4 -4 -5 -5 -5 -5
2 4 4 8 11 13 12 7 8 8 6 6 6 2 3 6 5 6 5 5 4 4 4 3 3 2 2 2 1 1 0 -1 -1 -2 -3 -3 -4 -4 -4 -5 -5 -6 -5 -6
-2 0 4 7 11 13 8 7 8 8 7 6 5 7 6 5 5 5 5 4 4 3 3 3 2 1 1 1 0 -0 -1 -2 -2 -3 -4 -5 -5 -5 -5 -5 -6 -5 -6 -6
1 1 5 9 10 8 8 8 8 7 7 7 6 6 5 5 5 4 4 3 3 2 2 1 1 1 0 -0 -1 -2 -2 -3 -4 -4 -4 -5 -5 -5 -5 -5 -6 -6 -7 -7
6 6 9 11 11 12 11 9 7 7 7 6 5 5 5 5 4 4 3 3 2 2 1 0 -0 -1 -1 -1 -2 -2 -3 -4 -4 -5 -5 -5 -6 -5 -6 -7 -7 -7 -8 -8
6 9 9 11 10 10 9 9 7 7 6 5 5 5 4 4 4 3 3 2 1 1 0 -0 -1 -2 -2 -2 -3 -4 -5 -5 -5 -5 -6 -6 -7 -7 -7 -7 -8 -8 -8 -8
5 7 7 8 8 8 7 7 7 6 5 5 5 4 4 4 3 2 2 1 0 -0 -1 -1 -2 -2 -3 -4 -5 -6 -5 -6 -6 -6 -6 -7 -8 -8 -8 -8 -8 -9 -9 -9
5 10 9 9 8 7 7 6 5 5 5 4 4 4 3 3 2 1 1 0 -0 -1 -1 -2 -2 -3 -3 -5 -5 -5 -6 -6 -7 -7 -8 -8 -8 -8 -9 -9 -9 -9 -9 -9
10 10 10 10 7 6 6 5 5 5 4 4 4 3 3 2 1 1 -0 -1 -1 -1 -2 -2 -2 -3 -4 -5 -5 -5 -7 -7 -7 -8 -8 -9 -9 -9 -10 -9 -9 -9 -9 -10
10 9 6 6 6 5 5 5 4 4 4 3 3 3 2 1 0 -0 -1 -1 -2 -2 -2 -2 -3 -3 -5 -6 -6 -7 -7 -7 -8 -8 -8 -9 -9 -10 -10 -10 -10 -9 -10 -10
8 8 8 6 5 4 3 4 4 4 3 3 2 1 1 -0 -1 -1 -2 -2 -2 -2 -2 -3 -6 -6 -6 -6 -6 -7 -7 -8 -7 -8 -8 -9 -9 -9 -10 -10 -10 -10 -10 -10
6 6 5 4 3 3 4 3 4 3 3 2 1 0 -0 -1 -2 -2 -2 -2 -3 -3 -3 -5 -7 -6 -6 -6 -6 -7 -7 -8 -8 -9 -9 -9 -9 -9 -9 -10 -10 -10 -10 -10
5 4 3 2 3 3 3 3 3 2 2 1 0 -1 -1 -2 -2 -2 -2 -3 -4 -4 -4 -6 -6 -6 -6 -6 -6 -7 -7 -8 -8 -9 -9 -9 -9 -9 -9 -9 -10 -10 -10 -10
4 1 1 1 1 2 3 2 2 1 1 -0 -1 -2 -2 -2 -2 -2 -3 -3 -4 -5 -6 -6 -6 -6 -6 -6 -6 -7 -6 -7 -8 -9 -10 -10 -10 -9 -9 -9 -9 -10 -10 -10
0 0 -1 0 2 2 2 1 1 0 -0 -1 -2 -2 -2 -2 -3 -3 -3 -4 -5 -5 -5 -6 -6 -6 -6 -6 -7 -6 -7 -8 -8 -9 -10 -10 -10 -9 -9 -9 -9 -9 -9 -10
1 1 2 1 1 1 1 0 -0 -1 -1 -2 -2 -2 -2 -2 -3 -3 -4 -5 -5 -6 -6 -6 -6 -6 -6 -7 -7 -7 -7 -8 -8 -9 -9 -9 -9 -9 -9 -9 -9 -9 -9 -10
2 2 1 1 1 0 -0 -1 -1 -2 -2 -2 -2 -2 -2 -2 -3 -4 -4 -4 -4 -6 -6 -7 -7 -7 -7 -7 -7 -7 -7 -8 -8 -8 -8 -9 -9 -9 -9 -9 -9 -9 -9 -10
1 1 1 0 -0 -1 -1 -1 -2 -2 -2 -2 -2 -2 -3 -3 -3 -3 -4 -4 -5 -6 -6 -7 -7 -7 -7 -7 -7 -7 -7 -8 -8 -8 -8 -8 -9 -9 -9 -9 -9 -10 -10 -10
0 0 -0 -1 -1 -1 -1 -1 -2 -2 -2 -2 -3 -3 -3 -3 -4 -4 -4 -5 -6 -6 -7 -7 -7 -7 -7 -7 -7 -7 -7 -7 -7 -7 -7 -8 -9 -9 -9 -9 -9 -10 -10 -10
-1 -1 -1 -1 -2 -2 -2 -2 -2 -2 -2 -3 -3 -3 -3 -4 -4 -5 -5 -5 -6 -7 -7 -7 -7 -7 -7 -7 -7 -7 -7 -7 -7 -7 -7 -7 -8 -9 -9 -9 -10 -10 -10 -10
-1 -1 -2 -2 -2 -2 -2 -2 -3 -3 -3 -3 -3 -4 -4 -4 -5 -5 -5 -6 -7 -7 -7 -7 -7 -7 -7 -7 -7 -7 -7 -7 -7 -7 -7 -7 -8 -8 -9 -9 -10 -10 -10 -10
-2 -2 -2 -2 -2 -2 -3 -3 -3 -3 -4 -4 -4 -4 -5 -5 -5 -6 -7 -7 -7 -8 -8 -8 -8 -8 -8 -8 -8 -8 -7 -7 -7 -7 -7 -7 -7 -8 -9 -9 -10 -10 -11 -11
-2 -2 -3 -3 -3 -3 -3 -4 -4 -4 -4 -4 -5 -5 -6 -5 -6 -7 -7 -7 -9 -9 -8 -7 -7 -8 -9 -9 -9 -8 -8 -8 -8 -7 -7 -7 -7 -8 -9 -9 -10 -10 -10 -11

GFSNGP_850_temp_033.txt.gz
Temp
11 10 13 14 13 11 11 10 9 10 9 9 8 7 7 8 7 7 7 7 7 6 6 6 6 5 5 4 4 4 3 3 3 2 1 1 0 -1 -1 -1 -2 -2 -3 -4
11 8 8 11 11 10 9 10 9 9 8 8 8 8 7 7 7 7 6 6 6 6 6 6 5 4 4 4 3 3 2 2 1 1 0 -0 -1 -1 -2 -3 -3 -4 -4 -4
7 5 7 7 9 10 12 11 10 7 8 7 6 7 7 7 7 6 6 6 5 5 5 5 4 4 3 3 2 2 1 1 0 -0 -1 -1 -2 -2 -3 -3 -4 -4 -5 -6
4 3 6 10 10 11 11 9 9 7 7 7 7 8 7 7 7 6 6 5 5 5 4 4 3 3 3 2 2 1 1 0 -0 -1 -1 -2 -2 -3 -3 -4 -5 -4 -5 -5
3 4 7 11 10 9 10 9 7 7 6 7 7 6 6 6 6 5 5 5 5 4 4 3 3 3 2 2 1 1 0 -0 -1 -2 -2 -3 -3 -4 -4 -5 -5 -5 -5 -6
2 3 5 9 10 12 11 7 8 8 6 6 5 1 3 6 5 5 5 4 4 3 3 2 2 2 1 1 0 -0 -1 -2 -2 -3 -4 -4 -4 -5 -5 -5 -5 -6 -6 -6
-3 0 4 7 11 12 8 7 8 9 8 6 3 6 7 5 5 5 4 4 3 3 2 2 1 1 0 -0 -1 -1 -2 -3 -3 -4 -4 -4 -5 -5 -5 -5 -6 -6 -7 -7
0 1 6 8 9 8 8 10 10 9 8 7 7 6 5 5 5 4 4 3 3 2 2 1 1 1 -0 -1 -2 -3 -3 -4 -5 -5 -5 -5 -6 -6 -6 -6 -7 -7 -7 -8
5 6 8 10 11 12 12 12 9 9 8 7 6 5 5 5 4 4 3 3 2 1 1 1 0 -1 -1 -2 -3 -3 -4 -5 -6 -6 -6 -6 -7 -7 -7 -7 -7 -8 -8 -9
6 9 8 11 11 10 10 10 10 8 7 6 6 5 5 4 4 3 2 2 1 1 1 0 -1 -1 -2 -3 -4 -5 -6 -6 -6 -6 -6 -6 -8 -8 -8 -8 -8 -9 -9 -9
4 7 8 9 10 10 10 8 8 7 6 5 5 4 4 4 3 2 2 1 1 0 -0 -1 -1 -2 -3 -3 -4 -5 -5 -6 -6 -7 -7 -7 -8 -8 -9 -9 -9 -9 -9 -9
5 11 10 10 12 10 8 7 6 6 4 4 4 4 3 3 2 2 1 0 -0 -0 -1 -1 -1 -2 -3 -4 -6 -6 -6 -6 -7 -7 -8 -9 -9 -9 -9 -9 -9 -9 -9 -10
10 10 10 10 10 8 7 6 5 5 4 4 4 3 3 2 1 1 -0 -0 -1 -1 -1 -2 -2 -2 -3 -5 -6 -6 -6 -7 -7 -8 -8 -9 -9 -9 -10 -10 -10 -10 -10 -10
10 9 8 8 7 6 6 5 4 3 2 2 3 2 2 1 1 0 -1 -1 -1 -2 -2 -2 -3 -3 -5 -7 -7 -6 -7 -7 -8 -8 -8 -8 -9 -10 -10 -10 -10 -10 -10 -10
9 8 8 8 6 5 5 4 2 -0 1 2 2 2 1 1 -0 -1 -1 -2 -2 -2 -2 -3 -3 -4 -6 -6 -6 -6 -6 -7 -8 -8 -8 -9 -9 -9 -9 -10 -10 -10 -10 -10
6 6 6 5 4 3 2 -0 -1 1 2 2 1 1 1 -0 -1 -1 -2 -2 -2 -2 -3 -4 -5 -6 -6 -6 -6 -6 -6 -6 -8 -8 -9 -9 -9 -9 -9 -9 -9 -10 -10 -10
5 3 3 2 0 -0 -1 0 1 2 2 1 1 0 -0 -1 -1 -2 -2 -2 -3 -3 -4 -5 -5 -6 -6 -6 -7 -7 -7 -7 -8 -8 -9 -9 -10 -10 -9 -9 -9 -10 -10 -10
4 1 -1 -1 -1 -1 -1 0 1 1 1 0 -0 -0 -1 -2 -2 -2 -3 -3 -3 -4 -5 -5 -6 -6 -7 -7 -7 -7 -7 -7 -7 -8 -9 -9 -10 -10 -10 -10 -9 -10 -10 -10
0 -0 -0 -1 -1 0 1 1 1 0 -0 -1 -1 -2 -2 -2 -2 -3 -3 -3 -3 -4 -4 -5 -6 -6 -7 -7 -7 -7 -7 -7 -7 -8 -8 -9 -9 -10 -10 -10 -9 -9 -9 -9
0 0 0 1 1 1 1 0 0 -1 -2 -2 -2 -2 -2 -2 -3 -3 -3 -3 -3 -4 -4 -5 -6 -7 -7 -7 -7 -7 -7 -8 -8 -8 -8 -9 -9 -9 -10 -10 -10 -10 -9 -9
0 1 1 1 0 -0 -1 -1 -2 -2 -2 -2 -2 -2 -2 -2 -2 -3 -3 -4 -3 -4 -4 -5 -6 -7 -7 -8 -8 -8 -7 -7 -8 -8 -8 -8 -8 -8 -9 -9 -10 -10 -10 -10
0 0 0 -0 -0 -1 -1 -1 -2 -2 -2 -2 -2 -2 -3 -3 -3 -3 -4 -4 -4 -4 -5 -6 -6 -7 -7 -8 -8 -8 -7 -7 -7 -7 -8 -8 -8 -8 -8 -8 -9 -9 -10 -10
0 -0 -1 -1 -1 -1 -1 -2 -2 -2 -2 -2 -2 -3 -3 -3 -3 -4 -4 -4 -5 -5 -6 -7 -7 -7 -7 -7 -8 -8 -7 -7 -7 -7 -7 -7 -7 -7 -7 -8 -9 -9 -10 -10
-1 -1 -1 -2 -2 -2 -2 -2 -2 -2 -3 -3 -3 -3 -4 -4 -3 -4 -5 -5 -5 -6 -7 -7 -7 -8 -8 -8 -8 -8 -7 -7 -7 -7 -7 -7 -7 -7 -7 -8 -8 -9 -9 -10
-2 -2 -2 -2 -2 -3 -3 -3 -3 -3 -3 -4 -4 -4 -4 -4 -5 -5 -5 -6 -6 -7 -7 -7 -7 -8 -7 -8 -9 -9 -9 -8 -8 -8 -8 -8 -7 -7 -7 -7 -8 -9 -9 -10
-2 -3 -3 -3 -3 -3 -4 -4 -4 -4 -4 -4 -5 -5 -5 -5 -6 -6 -6 -7 -7 -8 -8 -8 -8 -7 -7 -7 -7 -8 -8 -8 -9 -9 -8 -8 -8 -8 -7 -8 -8 -9 -9 -10
-2 -2 -2 -3 -4 -4 -5 -5 -6 -6 -6 -7 -6 -6 -6 -6 -7 -7 -7 -7 -7 -8 -8 -8 -8 -8 -8 -8 -8 -7 -7 -7 -8 -9 -9 -8 -8 -8 -7 -8 -8 -9 -9 -10